Regional Weather Roundup
Issued by NWS

Home | Current Version | Previous Version | Graphics & Text | Print | Product List | Glossary On
Versions: 1 2 3 4 5 6 7 8 9 10 11 12 13 14 15 16 17 18 19 20 21 22 23 24 25 26 27 28 29 30 31 32 33 34 35 36 37 38 39 40 41 42 43 44 45 46 47 48 49 50
000
ASUS43 KFSD 122310
RWRSD

WEATHER ROUNDUP FOR SOUTH DAKOTA
NATIONAL WEATHER SERVICE SIOUX FALLS SD
600 PM CDT SAT JUL 12 2014

NOTE: "FAIR" INDICATES FEW OR NO CLOUDS BELOW 12,000 FEET WITH NO
SIGNIFICANT WEATHER AND/OR OBSTRUCTIONS TO VISIBILITY.


SDZ001>005-009-010-012>017-130000-
NORTHWEST AND NORTH CENTRAL SOUTH DAKOTA

CITY           SKY/WX    TMP DP  RH WIND       PRES   REMARKS
BUFFALO          N/A     82  53  36 NW17      30.08F
FAITH            N/A     81  62  52 W6        30.11F
MOBRIDGE       PTSUNNY   77  64  64 NW8       30.03F
$$

SDZ012>016-024>037-041>051-057-063-072>074-130000-
SOUTHWEST AND SOUTH CENTRAL SOUTH DAKOTA

CITY           SKY/WX    TMP DP  RH WIND       PRES   REMARKS
RAPID CTY ARPT PTSUNNY   79  64  60 CALM      30.16S
PIERRE         SUNNY     80  63  55 NW9       30.06F
CUSTER         PTSUNNY   66  60  81 NE9       30.30R
PHILIP         PTSUNNY   84  62  47 N8        30.09S
PINE RIDGE     SUNNY     81  61  50 CALM      30.15S
WINNER         FAIR      83  63  50 NW10      30.06S
$$

SDZ004>011-016>023-039-040-130000-
NORTHEAST SOUTH DAKOTA

CITY           SKY/WX    TMP DP  RH WIND       PRES   REMARKS
ABERDEEN       MOSUNNY   82  59  45 W12G20    30.01F
WATERTOWN      MOSUNNY   75  63  66 NW8       30.03F
SISSETON         N/A     80  62  54 NW15      29.97F
$$

SDZ017-020-022-023-036>040-048>070-130000-
SOUTHEAST SOUTH DAKOTA

CITY           SKY/WX    TMP DP  RH WIND       PRES   REMARKS
SIOUX FALLS    MOSUNNY   81  66  60 NW8       30.01S
HURON          MOSUNNY   80  65  59 NW10      30.02F
CHAMBERLAIN    SUNNY     82  62  50 N9        30.05S
MITCHELL       MOSUNNY   82  69  64 N10       30.03S
YANKTON        MOSUNNY   81  68  65 N3        30.02S
$$

ABBREVIATIONS USED IN REMARKS
   TC - TEMPERATURE IN CELSIUS
  WCI - WIND CHILL INDEX
   HX - HEAT INDEX
  VSB - VISIBILITY



USA.gov is the U.S. government's official web portal to all federal, state and local government web resources and services.